Location: Observatoire
(46.1952°N, 5.3391°E)
Time: 20:39:51
(UTC+01:00)

Injun/Solrad 3 - Pass Details

Date: 20 February 2026
Orbit: 871 x 985 km, 66.8° (Epoch: 11 March)

Event Time Altitude Azimuth Distance (km) Brightness Sun altitude
Rises 19:37:10 0° 327° (NNW) 3,569 11.4 -15.4°
Reaches altitude 10° 19:39:41 10° 330° (NNW) 2,639 10.7 -15.9°
Maximum altitude 19:45:50 69° 54° (NE) 1,012 7.9 -16.9°
Enters shadow 19:50:46 17° 136° (SE) 2,212 9.4 -17.8°
